| time (UTC) | temp F | wind direction | speed MPH | gust MPH | rain 1hr in | rain 24hr in | rain mn in | humidity % | barometer mb |
| 20260903141014 | 85 | 302 | 0.0 | 2.0 | 0.00 | 0.00 | 0.00 | 76 | 1018.1 |
| 20260903140516 | 84 | 190 | 0.0 | 2.0 | 0.00 | 0.00 | 0.00 | 78 | 1018.0 |
| 20260903140030 | 84 | 188 | 0.0 | 4.0 | 0.00 | 0.00 | 0.00 | 77 | 1018.0 |
| 20260903135515 | 84 | 42 | 0.0 | 4.0 | 0.00 | 0.00 | 0.00 | 78 | 1018.0 |
| 20260903135018 | 83 | 40 | 0.0 | 2.0 | 0.00 | 0.00 | 0.00 | 79 | 1017.9 |
| 20260903134512 | 83 | 276 | 0.0 | 2.0 | 0.00 | 0.00 | 0.00 | 82 | 1018.0 |
| 20260903134011 | 82 | 12 | 0.0 | 2.0 | 0.00 | 0.00 | 0.00 | 81 | 1018.0 |
| 20260903133509 | 82 | 207 | 0.0 | 2.0 | 0.00 | 0.00 | 0.00 | 82 | 1018.0 |
| 20260903133017 | 82 | 202 | 0.0 | 1.0 | 0.00 | 0.00 | 0.00 | 83 | 1017.9 |
| 20260903132508 | 81 | 200 | 0.0 | 0.0 | 0.00 | 0.00 | 0.00 | 83 | 1018.0 |
| 20260903132012 | 81 | 213 | 0.0 | 2.0 | 0.00 | 0.00 | 0.00 | 85 | 1018.1 |
| 20260903131524 | 81 | 206 | 0.0 | 2.0 | 0.00 | 0.00 | 0.00 | 85 | 1018.0 |
| 20260903131014 | 81 | 205 | 0.0 | 2.0 | 0.00 | 0.00 | 0.00 | 85 | 1018.1 |
| 20260903130515 | 80 | 196 | 0.0 | 2.0 | 0.00 | 0.00 | 0.00 | 85 | 1018.2 |
| 20260903130028 | 80 | 196 | 0.0 | 1.0 | 0.00 | 0.00 | 0.00 | 87 | 1018.2 |
| 20260903125504 | 79 | 13 | 0.0 | 0.0 | 0.00 | 0.00 | 0.00 | 88 | 1018.2 |
| 20260903125004 | 79 | 16 | 0.0 | 0.0 | 0.00 | 0.00 | 0.00 | 88 | 1018.1 |
| 20260903124508 | 79 | 95 | 0.0 | 0.0 | 0.00 | 0.00 | 0.00 | 89 | 1018.2 |
| 20260903124005 | 78 | 98 | 0.0 | 0.0 | 0.00 | 0.00 | 0.00 | 89 | 1018.1 |
| 20260903123508 | 78 | 98 | 0.0 | 0.0 | 0.00 | 0.00 | 0.00 | 90 | 1018.2 |
| 20260903123016 | 78 | 98 | 0.0 | 0.0 | 0.00 | 0.00 | 0.00 | 90 | 1018.2 |
| 20260903122510 | 77 | 98 | 0.0 | 0.0 | 0.00 | 0.00 | 0.00 | 91 | 1018.2 |
| 20260903122010 | 77 | 98 | 0.0 | 0.0 | 0.00 | 0.00 | 0.00 | 91 | 1018.2 |
| 20260903121521 | 77 | 98 | 0.0 | 0.0 | 0.00 | 0.00 | 0.00 | 92 | 1018.3 |
| 20260903121013 | 76 | 98 | 0.0 | 0.0 | 0.00 | 0.00 | 0.00 | 92 | 1018.4 |
| 20260903120513 | 76 | 98 | 0.0 | 0.0 | 0.00 | 0.00 | 0.00 | 93 | 1018.4 |
| 20260903120029 | 76 | 98 | 0.0 | 0.0 | 0.00 | 0.00 | 0.00 | 93 | 1018.4 |
| 20260903115514 | 76 | 98 | 0.0 | 0.0 | 0.00 | 0.00 | 0.00 | 93 | 1018.4 |
| 20260903115020 | 75 | 98 | 0.0 | 0.0 | 0.00 | 0.00 | 0.00 | 94 | 1018.3 |
| 20260903114510 | 75 | 98 | 0.0 | 0.0 | 0.00 | 0.00 | 0.00 | 94 | 1018.4 |
| 20260903114005 | 75 | 98 | 0.0 | 0.0 | 0.00 | 0.00 | 0.00 | 94 | 1018.3 |
| 20260903113506 | 75 | 98 | 0.0 | 0.0 | 0.00 | 0.00 | 0.00 | 94 | 1018.4 |
| 20260903113016 | 75 | 98 | 0.0 | 0.0 | 0.00 | 0.00 | 0.00 | 94 | 1018.3 |
| 20260903112508 | 75 | 98 | 0.0 | 0.0 | 0.00 | 0.00 | 0.00 | 94 | 1018.3 |
| 20260903112013 | 75 | 98 | 0.0 | 0.0 | 0.00 | 0.00 | 0.00 | 94 | 1018.3 |
| 20260903111543 | 75 | 98 | 0.0 | 0.0 | 0.00 | 0.00 | 0.00 | 94 | 1018.3 |
| 20260903111011 | 75 | 98 | 0.0 | 0.0 | 0.00 | 0.00 | 0.00 | 94 | 1018.1 |
| 20260903110512 | 74 | 98 | 0.0 | 0.0 | 0.00 | 0.00 | 0.00 | 94 | 1018.1 |
| 20260903110027 | 75 | 98 | 0.0 | 0.0 | 0.00 | 0.00 | 0.00 | 94 | 1018.0 |
| 20260903105519 | 74 | 98 | 0.0 | 0.0 | 0.00 | 0.00 | 0.00 | 94 | 1018.0 |
| 20260903105014 | 74 | 98 | 0.0 | 0.0 | 0.00 | 0.00 | 0.00 | 94 | 1017.9 |
| 20260903104539 | 75 | 98 | 0.0 | 0.0 | 0.00 | 0.00 | 0.00 | 94 | 1017.9 |
| 20260903104016 | 74 | 98 | 0.0 | 0.0 | 0.00 | 0.00 | 0.00 | 94 | 1017.9 |
| 20260903103516 | 74 | 98 | 0.0 | 0.0 | 0.00 | 0.00 | 0.00 | 94 | 1017.8 |
| 20260903103015 | 74 | 98 | 0.0 | 0.0 | 0.00 | 0.00 | 0.00 | 94 | 1017.8 |
| 20260903102508 | 74 | 98 | 0.0 | 0.0 | 0.00 | 0.00 | 0.00 | 93 | 1017.7 |
| 20260903102010 | 74 | 98 | 0.0 | 0.0 | 0.00 | 0.00 | 0.00 | 94 | 1017.8 |
| 20260903101519 | 74 | 98 | 0.0 | 0.0 | 0.00 | 0.00 | 0.00 | 94 | 1017.6 |
| 20260903101010 | 74 | 98 | 0.0 | 0.0 | 0.00 | 0.00 | 0.00 | 94 | 1017.6 |
| 20260903100509 | 74 | 98 | 0.0 | 0.0 | 0.00 | 0.00 | 0.00 | 93 | 1017.6 |
| 20260903100028 | 74 | 98 | 0.0 | 0.0 | 0.00 | 0.00 | 0.00 | 93 | 1017.6 |
| 20260903095513 | 74 | 98 | 0.0 | 0.0 | 0.00 | 0.00 | 0.00 | 93 | 1017.6 |
| 20260903095013 | 75 | 98 | 0.0 | 0.0 | 0.00 | 0.00 | 0.00 | 93 | 1017.5 |
| 20260903094530 | 75 | 98 | 0.0 | 0.0 | 0.00 | 0.00 | 0.00 | 93 | 1017.5 |
| 20260903094016 | 75 | 98 | 0.0 | 0.0 | 0.00 | 0.00 | 0.00 | 93 | 1017.5 |
| 20260903093520 | 75 | 98 | 0.0 | 0.0 | 0.00 | 0.00 | 0.00 | 93 | 1017.5 |
| 20260903093039 | 75 | 98 | 0.0 | 0.0 | 0.00 | 0.00 | 0.00 | 93 | 1017.4 |
| 20260903092517 | 75 | 98 | 0.0 | 0.0 | 0.00 | 0.00 | 0.00 | 93 | 1017.4 |
| 20260903092007 | 75 | 98 | 0.0 | 0.0 | 0.00 | 0.00 | 0.00 | 93 | 1017.4 |
| 20260903091529 | 75 | 98 | 0.0 | 0.0 | 0.00 | 0.00 | 0.00 | 93 | 1017.4 |
| 20260903091008 | 75 | 98 | 0.0 | 0.0 | 0.00 | 0.00 | 0.00 | 93 | 1017.4 |
| 20260903090508 | 75 | 78 | 0.0 | 0.0 | 0.00 | 0.00 | 0.00 | 93 | 1017.4 |
| 20260903090025 | 75 | 78 | 0.0 | 0.0 | 0.00 | 0.00 | 0.00 | 93 | 1017.4 |
| 20260903085511 | 75 | 78 | 0.0 | 0.0 | 0.00 | 0.00 | 0.00 | 92 | 1017.3 |
| 20260903085013 | 75 | 78 | 0.0 | 0.0 | 0.00 | 0.00 | 0.00 | 92 | 1017.3 |
| 20260903084534 | 75 | 78 | 0.0 | 0.0 | 0.00 | 0.00 | 0.00 | 92 | 1017.4 |
| 20260903084016 | 75 | 78 | 0.0 | 0.0 | 0.00 | 0.00 | 0.00 | 92 | 1017.3 |
| 20260903083515 | 75 | 78 | 0.0 | 0.0 | 0.00 | 0.00 | 0.00 | 92 | 1017.2 |
| 20260903083029 | 75 | 78 | 0.0 | 0.0 | 0.00 | 0.00 | 0.00 | 92 | 1017.2 |
| 20260903082517 | 75 | 78 | 0.0 | 0.0 | 0.00 | 0.00 | 0.00 | 92 | 1017.1 |
| 20260903082017 | 75 | 78 | 0.0 | 0.0 | 0.00 | 0.00 | 0.00 | 92 | 1017.2 |
| 20260903081535 | 75 | 78 | 0.0 | 0.0 | 0.00 | 0.00 | 0.00 | 92 | 1017.1 |
| 20260903081016 | 75 | 78 | 0.0 | 0.0 | 0.00 | 0.00 | 0.00 | 92 | 1017.1 |
| 20260903080511 | 75 | 78 | 0.0 | 0.0 | 0.00 | 0.00 | 0.00 | 92 | 1017.1 |
| 20260903080021 | 75 | 78 | 0.0 | 0.0 | 0.00 | 0.00 | 0.00 | 91 | 1016.9 |
| 20260903075514 | 75 | 61 | 0.0 | 0.0 | 0.00 | 0.00 | 0.00 | 91 | 1016.9 |
| 20260903075010 | 75 | 61 | 0.0 | 0.0 | 0.00 | 0.00 | 0.00 | 91 | 1016.8 |
| 20260903074528 | 75 | 61 | 0.0 | 0.0 | 0.00 | 0.00 | 0.00 | 91 | 1017.0 |
| 20260903074013 | 75 | 61 | 0.0 | 0.0 | 0.00 | 0.00 | 0.00 | 91 | 1016.9 |
| 20260903073514 | 75 | 61 | 0.0 | 0.0 | 0.00 | 0.00 | 0.00 | 91 | 1016.9 |
| 20260903073042 | 75 | 61 | 0.0 | 0.0 | 0.00 | 0.00 | 0.00 | 90 | 1016.9 |
| 20260903072515 | 75 | 61 | 0.0 | 0.0 | 0.00 | 0.00 | 0.00 | 90 | 1016.9 |
| 20260903072016 | 75 | 61 | 0.0 | 0.0 | 0.00 | 0.00 | 0.00 | 90 | 1016.8 |
| 20260903071534 | 75 | 61 | 0.0 | 0.0 | 0.00 | 0.00 | 0.00 | 90 | 1016.8 |
| 20260903071017 | 75 | 61 | 0.0 | 0.0 | 0.00 | 0.00 | 0.00 | 89 | 1016.9 |
| 20260903070519 | 75 | 61 | 0.0 | 0.0 | 0.00 | 0.00 | 0.00 | 89 | 1016.9 |
| 20260903070038 | 75 | 61 | 0.0 | 0.0 | 0.00 | 0.00 | 0.00 | 89 | 1016.9 |
| 20260903065510 | 76 | 61 | 0.0 | 0.0 | 0.00 | 0.00 | 0.00 | 89 | 1016.9 |
| 20260903065011 | 76 | 61 | 0.0 | 0.0 | 0.00 | 0.00 | 0.00 | 88 | 1016.8 |
| 20260903064524 | 76 | 61 | 0.0 | 0.0 | 0.00 | 0.00 | 0.00 | 88 | 1016.9 |
| 20260903064003 | 76 | 61 | 0.0 | 0.0 | 0.00 | 0.00 | 0.00 | 88 | 1016.9 |
| 20260903063503 | 76 | 61 | 0.0 | 0.0 | 0.00 | 0.00 | 0.00 | 88 | 1017.0 |
| 20260903063004 | 76 | 61 | 0.0 | 0.0 | 0.00 | 0.00 | 0.00 | 89 | 1017.1 |
| 20260903062507 | 76 | 61 | 0.0 | 0.0 | 0.00 | 0.00 | 0.00 | 88 | 1017.0 |
| 20260903062004 | 76 | 61 | 0.0 | 0.0 | 0.00 | 0.00 | 0.00 | 88 | 1017.1 |
| 20260903061521 | 76 | 61 | 0.0 | 0.0 | 0.00 | 0.00 | 0.00 | 88 | 1017.1 |
| 20260903061005 | 76 | 61 | 0.0 | 0.0 | 0.00 | 0.00 | 0.00 | 88 | 1017.1 |
| 20260903060510 | 76 | 61 | 0.0 | 0.0 | 0.00 | 0.00 | 0.00 | 88 | 1017.1 |
| 20260903060015 | 76 | 61 | 0.0 | 0.0 | 0.00 | 0.00 | 0.00 | 88 | 1017.2 |
| 20260903055507 | 76 | 61 | 0.0 | 0.0 | 0.00 | 0.00 | 0.00 | 88 | 1017.1 |
| 20260903055007 | 76 | 61 | 0.0 | 0.0 | 0.00 | 0.00 | 0.00 | 87 | 1017.1 |
| 20260903054521 | 76 | 61 | 0.0 | 0.0 | 0.00 | 0.00 | 0.00 | 86 | 1017.3 |
| 20260903054010 | 76 | 61 | 0.0 | 0.0 | 0.00 | 0.00 | 0.00 | 87 | 1017.3 |
| 20260903053512 | 76 | 61 | 0.0 | 0.0 | 0.00 | 0.00 | 0.00 | 87 | 1017.3 |
| 20260903053029 | 76 | 61 | 0.0 | 0.0 | 0.00 | 0.00 | 0.00 | 87 | 1017.2 |
| 20260903052505 | 76 | 61 | 0.0 | 0.0 | 0.00 | 0.00 | 0.00 | 87 | 1017.1 |
| 20260903052005 | 77 | 61 | 0.0 | 0.0 | 0.00 | 0.00 | 0.00 | 86 | 1017.2 |
| 20260903051506 | 77 | 61 | 0.0 | 0.0 | 0.00 | 0.00 | 0.00 | 86 | 1017.3 |
| 20260903051003 | 77 | 61 | 0.0 | 0.0 | 0.00 | 0.00 | 0.00 | 86 | 1017.4 |
| 20260903050505 | 77 | 61 | 0.0 | 0.0 | 0.00 | 0.00 | 0.00 | 85 | 1017.2 |
| 20260903050014 | 77 | 61 | 0.0 | 0.0 | 0.00 | 0.00 | 0.00 | 85 | 1017.2 |
| 20260903045506 | 77 | 61 | 0.0 | 0.0 | 0.00 | 0.00 | 0.00 | 85 | 1017.2 |
| 20260903045007 | 77 | 61 | 0.0 | 0.0 | 0.00 | 0.00 | 0.00 | 85 | 1017.2 |
| 20260903044520 | 77 | 61 | 0.0 | 0.0 | 0.00 | 0.00 | 0.00 | 85 | 1017.2 |
| 20260903044010 | 77 | 61 | 0.0 | 0.0 | 0.00 | 0.00 | 0.00 | 85 | 1017.2 |
| 20260903043509 | 77 | 61 | 0.0 | 0.0 | 0.00 | 0.00 | 0.00 | 85 | 1017.3 |
| 20260903043029 | 77 | 61 | 0.0 | 0.0 | 0.00 | 0.00 | 0.00 | 85 | 1017.4 |
| 20260903042513 | 77 | 61 | 0.0 | 0.0 | 0.00 | 0.00 | 0.00 | 85 | 1017.4 |
| 20260903042013 | 78 | 61 | 0.0 | 0.0 | 0.00 | 0.00 | 0.00 | 84 | 1017.3 |
| 20260903041506 | 78 | 61 | 0.0 | 0.0 | 0.00 | 0.00 | 0.00 | 84 | 1017.2 |
| 20260903041003 | 78 | 61 | 0.0 | 0.0 | 0.00 | 0.00 | 0.00 | 84 | 1017.3 |
| 20260903040505 | 78 | 61 | 0.0 | 0.0 | 0.00 | 0.00 | 0.00 | 84 | 1017.4 |
| 20260903040009 | 78 | 61 | 0.0 | 0.0 | 0.00 | 0.00 | 0.00 | 83 | 1017.3 |
| 20260903035509 | 78 | 61 | 0.0 | 0.0 | 0.00 | 0.00 | 0.00 | 84 | 1017.4 |
| 20260903035005 | 78 | 61 | 0.0 | 0.0 | 0.00 | 0.00 | 0.00 | 84 | 1017.4 |
| 20260903034518 | 78 | 61 | 0.0 | 0.0 | 0.00 | 0.00 | 0.00 | 83 | 1017.4 |
| 20260903034008 | 78 | 61 | 0.0 | 0.0 | 0.00 | 0.00 | 0.00 | 82 | 1017.4 |
| 20260903033513 | 79 | 61 | 0.0 | 0.0 | 0.00 | 0.00 | 0.00 | 82 | 1017.4 |
| 20260903033026 | 79 | 61 | 0.0 | 0.0 | 0.00 | 0.00 | 0.00 | 81 | 1017.5 |
| 20260903032511 | 79 | 61 | 0.0 | 0.0 | 0.00 | 0.00 | 0.00 | 81 | 1017.5 |
| 20260903032013 | 79 | 61 | 0.0 | 0.0 | 0.00 | 0.00 | 0.00 | 80 | 1017.5 |
| 20260903031530 | 79 | 61 | 0.0 | 0.0 | 0.00 | 0.00 | 0.00 | 80 | 1017.4 |
| 20260903031013 | 79 | 61 | 0.0 | 0.0 | 0.00 | 0.00 | 0.00 | 80 | 1017.4 |
| 20260903030503 | 80 | 61 | 0.0 | 0.0 | 0.00 | 0.00 | 0.00 | 79 | 1017.4 |
| 20260903030008 | 80 | 61 | 0.0 | 0.0 | 0.00 | 0.00 | 0.00 | 79 | 1017.5 |
| 20260903025508 | 80 | 61 | 0.0 | 0.0 | 0.00 | 0.00 | 0.00 | 78 | 1017.5 |
| 20260903025007 | 80 | 61 | 0.0 | 0.0 | 0.00 | 0.00 | 0.00 | 77 | 1017.6 |
| 20260903024516 | 80 | 61 | 0.0 | 0.0 | 0.00 | 0.00 | 0.00 | 77 | 1017.5 |
| 20260903024009 | 81 | 61 | 0.0 | 0.0 | 0.00 | 0.00 | 0.00 | 76 | 1017.6 |
| 20260903023507 | 81 | 61 | 0.0 | 0.0 | 0.00 | 0.00 | 0.00 | 76 | 1017.7 |
| 20260903023023 | 81 | 61 | 0.0 | 0.0 | 0.00 | 0.00 | 0.00 | 75 | 1017.6 |
| 20260903022509 | 82 | 61 | 0.0 | 0.0 | 0.00 | 0.00 | 0.00 | 75 | 1017.5 |
| 20260903022009 | 82 | 61 | 0.0 | 0.0 | 0.00 | 0.00 | 0.00 | 74 | 1017.6 |
| 20260903021531 | 82 | 293 | 0.0 | 0.0 | 0.00 | 0.00 | 0.00 | 74 | 1017.5 |
| 20260903021012 | 82 | 293 | 0.0 | 0.0 | 0.00 | 0.00 | 0.00 | 73 | 1017.6 |
| 20260903020513 | 82 | 293 | 0.0 | 0.0 | 0.00 | 0.00 | 0.00 | 73 | 1017.6 |
| 20260903020033 | 82 | 293 | 0.0 | 0.0 | 0.00 | 0.00 | 0.00 | 73 | 1017.5 |
| 20260903015514 | 83 | 293 | 0.0 | 0.0 | 0.00 | 0.00 | 0.00 | 73 | 1017.4 |
| 20260903015004 | 83 | 293 | 0.0 | 0.0 | 0.00 | 0.00 | 0.00 | 73 | 1017.3 |
| 20260903014511 | 83 | 293 | 0.0 | 1.0 | 0.00 | 0.00 | 0.00 | 72 | 1017.2 |
| 20260903014006 | 83 | 293 | 0.0 | 1.0 | 0.00 | 0.00 | 0.00 | 72 | 1016.7 |
| 20260903013508 | 84 | 294 | 1.0 | 1.0 | 0.00 | 0.00 | 0.00 | 71 | 1016.8 |
| 20260903013035 | 85 | 78 | 0.0 | 0.0 | 0.00 | 0.00 | 0.00 | 70 | 1017.2 |
| 20260903012509 | 85 | 81 | 0.0 | 2.0 | 0.00 | 0.00 | 0.00 | 68 | 1017.5 |
| 20260903012008 | 86 | 81 | 0.0 | 4.0 | 0.00 | 0.00 | 0.00 | 67 | 1017.9 |
| 20260903011527 | 86 | 90 | 1.0 | 4.0 | 0.00 | 0.00 | 0.00 | 69 | 1018.2 |
| 20260903011010 | 85 | 96 | 0.0 | 2.0 | 0.00 | 0.00 | 0.00 | 71 | 1018.2 |
| 20260903010513 | 85 | 79 | 0.0 | 2.0 | 0.00 | 0.00 | 0.00 | 73 | 1018.2 |
| 20260903010034 | 84 | 132 | 0.0 | 0.0 | 0.00 | 0.00 | 0.00 | 76 | 1017.9 |
| 20260903005516 | 84 | 132 | 0.0 | 0.0 | 0.00 | 0.00 | 0.00 | 76 | 1017.8 |
| 20260903005013 | 85 | 132 | 0.0 | 0.0 | 0.00 | 0.00 | 0.00 | 74 | 1017.8 |
| 20260903004535 | 85 | 132 | 0.0 | 0.0 | 0.00 | 0.00 | 0.00 | 74 | 1017.8 |
| 20260903004006 | 85 | 132 | 0.0 | 0.0 | 0.00 | 0.00 | 0.00 | 75 | 1017.6 |
| 20260903003506 | 84 | 211 | 0.0 | 0.0 | 0.00 | 0.00 | 0.00 | 75 | 1017.3 |
| 20260903003017 | 85 | 211 | 0.0 | 0.0 | 0.00 | 0.00 | 0.00 | 76 | 1017.0 |
| 20260903002507 | 85 | 211 | 0.0 | 0.0 | 0.00 | 0.00 | 0.00 | 75 | 1016.9 |
| 20260903002010 | 85 | 211 | 0.0 | 0.0 | 0.00 | 0.00 | 0.00 | 75 | 1016.9 |
| 20260903001521 | 85 | 211 | 0.0 | 0.0 | 0.00 | 0.00 | 0.00 | 74 | 1016.8 |
| 20260903001010 | 85 | 211 | 0.0 | 0.0 | 0.00 | 0.00 | 0.00 | 74 | 1016.8 |
| 20260903000512 | 85 | 211 | 0.0 | 0.0 | 0.00 | 0.00 | 0.00 | 74 | 1016.8 |
| 20260903000026 | 86 | 211 | 0.0 | 0.0 | 0.00 | 0.00 | 0.00 | 73 | 1016.8 |
| 20260902235514 | 86 | 211 | 0.0 | 0.0 | 0.00 | 0.00 | 0.00 | 71 | 1016.8 |
| 20260902235016 | 86 | 211 | 0.0 | 0.0 | 0.00 | 0.00 | 0.00 | 71 | 1016.6 |
| 20260902234530 | 86 | 211 | 0.0 | 0.0 | 0.00 | 0.00 | 0.00 | 71 | 1016.7 |
| 20260902234015 | 86 | 211 | 0.0 | 0.0 | 0.00 | 0.00 | 0.00 | 70 | 1016.7 |
| 20260902233516 | 87 | 207 | 0.0 | 0.0 | 0.00 | 0.00 | 0.00 | 69 | 1016.7 |
| 20260902233034 | 88 | 207 | 0.0 | 0.0 | 0.00 | 0.00 | 0.00 | 69 | 1016.7 |
| 20260902232511 | 88 | 207 | 0.0 | 0.0 | 0.00 | 0.00 | 0.00 | 66 | 1016.7 |
| 20260902232007 | 88 | 207 | 0.0 | 0.0 | 0.00 | 0.00 | 0.00 | 66 | 1016.8 |
| 20260902231528 | 88 | 207 | 0.0 | 0.0 | 0.00 | 0.00 | 0.00 | 66 | 1016.8 |
| 20260902231011 | 89 | 207 | 0.0 | 0.0 | 0.00 | 0.00 | 0.00 | 65 | 1016.8 |
| 20260902230510 | 89 | 207 | 0.0 | 0.0 | 0.00 | 0.00 | 0.00 | 63 | 1016.8 |
| 20260902230024 | 90 | 207 | 0.0 | 0.0 | 0.00 | 0.00 | 0.00 | 62 | 1016.7 |
| 20260902225514 | 90 | 207 | 0.0 | 0.0 | 0.00 | 0.00 | 0.00 | 61 | 1016.7 |
| 20260902225014 | 90 | 207 | 0.0 | 0.0 | 0.00 | 0.00 | 0.00 | 63 | 1016.7 |
| 20260902224543 | 90 | 207 | 0.0 | 0.0 | 0.00 | 0.00 | 0.00 | 67 | 1016.7 |
| 20260902224018 | 90 | 207 | 0.0 | 0.0 | 0.00 | 0.00 | 0.00 | 67 | 1016.5 |
| 20260902223513 | 91 | 207 | 0.0 | 0.0 | 0.00 | 0.00 | 0.00 | 65 | 1016.5 |
| 20260902223046 | 91 | 207 | 0.0 | 0.0 | 0.00 | 0.00 | 0.00 | 64 | 1016.5 |
| 20260902222515 | 91 | 207 | 0.0 | 0.0 | 0.00 | 0.00 | 0.00 | 62 | 1016.6 |
| 20260902222023 | 92 | 207 | 0.0 | 0.0 | 0.00 | 0.00 | 0.00 | 60 | 1016.5 |
| 20260902221521 | 93 | 207 | 0.0 | 0.0 | 0.00 | 0.00 | 0.00 | 59 | 1016.6 |
| 20260902221008 | 93 | 207 | 0.0 | 0.0 | 0.00 | 0.00 | 0.00 | 56 | 1016.5 |
| 20260902220510 | 93 | 207 | 0.0 | 0.0 | 0.00 | 0.00 | 0.00 | 56 | 1016.5 |
| 20260902220043 | 94 | 207 | 0.0 | 0.0 | 0.00 | 0.00 | 0.00 | 52 | 1016.5 |
| 20260902215512 | 93 | 207 | 0.0 | 2.0 | 0.00 | 0.00 | 0.00 | 53 | 1016.5 |
| 20260902215013 | 94 | 207 | 0.0 | 2.0 | 0.00 | 0.00 | 0.00 | 53 | 1016.5 |
| 20260902214528 | 94 | 207 | 0.0 | 2.0 | 0.00 | 0.00 | 0.00 | 50 | 1016.6 |
| 20260902214014 | 94 | 207 | 0.0 | 1.0 | 0.00 | 0.00 | 0.00 | 51 | 1016.6 |
| 20260902213515 | 94 | 257 | 0.0 | 0.0 | 0.00 | 0.00 | 0.00 | 51 | 1016.6 |
| 20260902213031 | 94 | 257 | 0.0 | 0.0 | 0.00 | 0.00 | 0.00 | 51 | 1016.6 |
| 20260902212518 | 95 | 257 | 0.0 | 0.0 | 0.00 | 0.00 | 0.00 | 50 | 1016.6 |
| 20260902212016 | 95 | 257 | 0.0 | 1.0 | 0.00 | 0.00 | 0.00 | 49 | 1016.5 |
| 20260902211533 | 95 | 262 | 0.0 | 2.0 | 0.00 | 0.00 | 0.00 | 49 | 1016.6 |
| 20260902211017 | 96 | 263 | 1.0 | 2.0 | 0.00 | 0.00 | 0.00 | 48 | 1016.6 |
| 20260902210508 | 96 | 221 | 0.0 | 1.0 | 0.00 | 0.00 | 0.00 | 49 | 1016.6 |
| 20260902210022 | 96 | 196 | 0.0 | 1.0 | 0.00 | 0.00 | 0.00 | 49 | 1016.4 |
| 20260902205511 | 96 | 213 | 0.0 | 2.0 | 0.00 | 0.00 | 0.00 | 48 | 1016.5 |
| 20260902205011 | 96 | 220 | 0.0 | 2.0 | 0.00 | 0.00 | 0.00 | 49 | 1016.4 |
| 20260902204527 | 97 | 189 | 0.0 | 2.0 | 0.00 | 0.00 | 0.00 | 49 | 1016.4 |
| 20260902204020 | 97 | 184 | 0.0 | 2.0 | 0.00 | 0.00 | 0.00 | 48 | 1016.5 |
| 20260902203514 | 96 | 196 | 0.0 | 2.0 | 0.00 | 0.00 | 0.00 | 49 | 1016.6 |
| 20260902203027 | 96 | 251 | 0.0 | 1.0 | 0.00 | 0.00 | 0.00 | 49 | 1016.6 |
| 20260902202516 | 96 | 209 | 0.0 | 1.0 | 0.00 | 0.00 | 0.00 | 50 | 1016.7 |
| 20260902202016 | 96 | 219 | 0.0 | 2.0 | 0.00 | 0.00 | 0.00 | 49 | 1016.7 |
| 20260902201544 | 96 | 207 | 0.0 | 2.0 | 0.00 | 0.00 | 0.00 | 50 | 1016.8 |
| 20260902201017 | 95 | 268 | 0.0 | 2.0 | 0.00 | 0.00 | 0.00 | 50 | 1016.8 |
| 20260902200518 | 95 | 268 | 0.0 | 2.0 | 0.00 | 0.00 | 0.00 | 50 | 1016.9 |
| 20260902200034 | 96 | 268 | 0.0 | 2.0 | 0.00 | 0.00 | 0.00 | 48 | 1016.9 |
| 20260902195518 | 97 | 308 | 0.0 | 2.0 | 0.00 | 0.00 | 0.00 | 47 | 1017.0 |
| 20260902195009 | 96 | 278 | 0.0 | 2.0 | 0.00 | 0.00 | 0.00 | 48 | 1017.1 |
| 20260902194531 | 96 | 109 | 0.0 | 2.0 | 0.00 | 0.00 | 0.00 | 48 | 1017.2 |
| 20260902194013 | 95 | 167 | 0.0 | 0.0 | 0.00 | 0.00 | 0.00 | 50 | 1017.2 |
| 20260902193514 | 95 | 180 | 0.0 | 2.0 | 0.00 | 0.00 | 0.00 | 51 | 1017.1 |
| 20260902193040 | 95 | 158 | 0.0 | 2.0 | 0.00 | 0.00 | 0.00 | 51 | 1017.2 |
| 20260902192515 | 96 | 102 | 0.0 | 2.0 | 0.00 | 0.00 | 0.00 | 49 | 1017.2 |
| 20260902192015 | 96 | 213 | 0.0 | 2.0 | 0.00 | 0.00 | 0.00 | 50 | 1017.3 |
| 20260902191533 | 98 | 218 | 0.0 | 3.0 | 0.00 | 0.00 | 0.00 | 48 | 1017.4 |
| 20260902191019 | 98 | 222 | 1.0 | 3.0 | 0.00 | 0.00 | 0.00 | 46 | 1017.4 |
| 20260902190517 | 98 | 279 | 0.0 | 2.0 | 0.00 | 0.00 | 0.00 | 48 | 1017.4 |
| 20260902190033 | 98 | 215 | 0.0 | 2.0 | 0.00 | 0.00 | 0.00 | 48 | 1017.4 |
| 20260902185518 | 97 | 318 | 0.0 | 2.0 | 0.00 | 0.00 | 0.00 | 47 | 1017.5 |
| 20260902185018 | 98 | 198 | 0.0 | 2.0 | 0.00 | 0.00 | 0.00 | 49 | 1017.5 |
| 20260902184545 | 97 | 83 | 0.0 | 2.0 | 0.00 | 0.00 | 0.00 | 48 | 1017.6 |
| 20260902184012 | 96 | 84 | 0.0 | 2.0 | 0.00 | 0.00 | 0.00 | 49 | 1017.7 |
| 20260902183512 | 96 | 92 | 0.0 | 2.0 | 0.00 | 0.00 | 0.00 | 47 | 1017.7 |
| 20260902183030 | 97 | 98 | 1.0 | 2.0 | 0.00 | 0.00 | 0.00 | 48 | 1017.8 |
| 20260902182515 | 97 | 102 | 0.0 | 4.0 | 0.00 | 0.00 | 0.00 | 49 | 1017.7 |
| 20260902182015 | 96 | 42 | 1.0 | 4.0 | 0.00 | 0.00 | 0.00 | 50 | 1017.7 |
| 20260902181531 | 97 | 345 | 0.0 | 2.0 | 0.00 | 0.00 | 0.00 | 48 | 1017.8 |
| 20260902181015 | 96 | 200 | 0.0 | 2.0 | 0.00 | 0.00 | 0.00 | 51 | 1017.8 |
| 20260902180517 | 95 | 92 | 0.0 | 2.0 | 0.00 | 0.00 | 0.00 | 53 | 1017.8 |
| 20260902180032 | 94 | 85 | 1.0 | 2.0 | 0.00 | 0.00 | 0.00 | 52 | 1017.9 |
| 20260902175516 | 94 | 107 | 0.0 | 2.0 | 0.00 | 0.00 | 0.00 | 54 | 1017.9 |
| 20260902175015 | 94 | 325 | 0.0 | 3.0 | 0.00 | 0.00 | 0.00 | 52 | 1018.0 |
| 20260902174536 | 94 | 323 | 1.0 | 3.0 | 0.00 | 0.00 | 0.00 | 52 | 1018.1 |
| 20260902174021 | 94 | 167 | 0.0 | 2.0 | 0.00 | 0.00 | 0.00 | 54 | 1018.1 |
| 20260902173519 | 94 | 179 | 0.0 | 2.0 | 0.00 | 0.00 | 0.00 | 55 | 1018.1 |
| 20260902173035 | 94 | 273 | 0.0 | 2.0 | 0.00 | 0.00 | 0.00 | 56 | 1018.2 |
| 20260902172513 | 93 | 229 | 0.0 | 1.0 | 0.00 | 0.00 | 0.00 | 58 | 1018.2 |
| 20260902172014 | 93 | 126 | 0.0 | 2.0 | 0.00 | 0.00 | 0.00 | 56 | 1018.2 |
| 20260902171530 | 93 | 100 | 0.0 | 2.0 | 0.00 | 0.00 | 0.00 | 57 | 1018.2 |
| 20260902171013 | 92 | 148 | 0.0 | 2.0 | 0.00 | 0.00 | 0.00 | 57 | 1018.3 |
| 20260902170518 | 92 | 161 | 0.0 | 2.0 | 0.00 | 0.00 | 0.00 | 58 | 1018.4 |
| 20260902170030 | 92 | 208 | 0.0 | 2.0 | 0.00 | 0.00 | 0.00 | 58 | 1018.5 |
| 20260902165517 | 92 | 284 | 0.0 | 2.0 | 0.00 | 0.00 | 0.00 | 57 | 1018.5 |
| 20260902165017 | 92 | 89 | 0.0 | 2.0 | 0.00 | 0.00 | 0.00 | 55 | 1018.6 |
| 20260902164514 | 92 | 76 | 0.0 | 2.0 | 0.00 | 0.00 | 0.00 | 58 | 1018.6 |
| 20260902164006 | 91 | 99 | 0.0 | 2.0 | 0.00 | 0.00 | 0.00 | 58 | 1018.7 |
| 20260902163506 | 91 | 80 | 0.0 | 2.0 | 0.00 | 0.00 | 0.00 | 60 | 1018.8 |
| 20260902163013 | 91 | 179 | 0.0 | 1.0 | 0.00 | 0.00 | 0.00 | 58 | 1018.8 |
| 20260902162502 | 91 | 70 | 0.0 | 1.0 | 0.00 | 0.00 | 0.00 | 58 | 1018.7 |
| 20260902162004 | 91 | 63 | 0.0 | 1.0 | 0.00 | 0.00 | 0.00 | 58 | 1018.7 |
| 20260902161504 | 91 | 30 | 0.0 | 2.0 | 0.00 | 0.00 | 0.00 | 58 | 1018.6 |
| 20260902161004 | 91 | 69 | 0.0 | 2.0 | 0.00 | 0.00 | 0.00 | 58 | 1018.7 |
| 20260902160506 | 91 | 61 | 0.0 | 2.0 | 0.00 | 0.00 | 0.00 | 1018.7 | |
| 20260902160009 | 91 | 323 | 0.0 | 2.0 | 0.00 | 0.00 | 0.00 | 58 | 1018.7 |
| 20260902155505 | 91 | 308 | 0.0 | 2.0 | 0.00 | 0.00 | 0.00 | 58 | 1018.9 |
| 20260902155009 | 91 | 313 | 0.0 | 2.0 | 0.00 | 0.00 | 0.00 | 62 | 1018.8 |
| 20260902154514 | 91 | 298 | 0.0 | 2.0 | 0.00 | 0.00 | 0.00 | 59 | 1018.8 |
| 20260902154009 | 91 | 334 | 0.0 | 2.0 | 0.00 | 0.00 | 0.00 | 59 | 1018.8 |
| 20260902153506 | 91 | 92 | 0.0 | 2.0 | 0.00 | 0.00 | 0.00 | 59 | 1018.8 |
| 20260902153038 | 91 | 88 | 0.0 | 2.0 | 0.00 | 0.00 | 0.00 | 59 | 1018.8 |
| 20260902152507 | 91 | 85 | 0.0 | 2.0 | 0.00 | 0.00 | 0.00 | 59 | 1018.8 |
| 20260902152007 | 90 | 100 | 1.0 | 2.0 | 0.00 | 0.00 | 0.00 | 61 | 1018.8 |
| 20260902151504 | 90 | 245 | 0.0 | 2.0 | 0.00 | 0.00 | 0.00 | 64 | 1018.7 |
| 20260902151005 | 89 | 248 | 0.0 | 3.0 | 0.00 | 0.00 | 0.00 | 63 | 1018.7 |
| 20260902150503 | 89 | 113 | 0.0 | 3.0 | 0.00 | 0.00 | 0.00 | 62 | 1018.6 |
| 20260902150006 | 89 | 91 | 0.0 | 2.0 | 0.00 | 0.00 | 0.00 | 64 | 1018.6 |
| 20260902145505 | 88 | 78 | 0.0 | 2.0 | 0.00 | 0.00 | 0.00 | 64 | 1018.7 |
| 20260902145003 | 88 | 41 | 0.0 | 2.0 | 0.00 | 0.00 | 0.00 | 65 | 1018.7 |
| 20260902144509 | 87 | 318 | 0.0 | 2.0 | 0.00 | 0.00 | 0.00 | 64 | 1018.6 |
| 20260902144006 | 87 | 102 | 0.0 | 2.0 | 0.00 | 0.00 | 0.00 | 65 | 1018.6 |
| 20260902143507 | 87 | 103 | 0.0 | 2.0 | 0.00 | 0.00 | 0.00 | 65 | 1018.6 |
| 20260902143015 | 87 | 230 | 0.0 | 2.0 | 0.00 | 0.00 | 0.00 | 69 | 1018.6 |
| 20260902142509 | 86 | 92 | 0.0 | 2.0 | 0.00 | 0.00 | 0.00 | 69 | 1018.7 |
| 20260902142008 | 86 | 96 | 0.0 | 1.0 | 0.00 | 0.00 | 0.00 | 69 | 1018.6 |
| 20260902141518 | 86 | 288 | 0.0 | 2.0 | 0.00 | 0.00 | 0.00 | 71 | 1018.4 |